Theta_e
314 314 314 314 315 316 316 317 317 316 316 316 317 317 315 314 314 316 318 318 319 317 317 317 317 317 317 318 319 322 322 322 323 323 322 324 323 328 332 333 335 338 340 341 341 341 341 338 337 337 336 334 334 333 333 333 333 333 332 331 330 329 329 326 324 326 326 323 326 330 329 329 330 329 329 329 328 328 328 328 327 325 322 322 325 326
314 314 315 315 316 317 317 318 318 317 317 317 317 316 316 315 315 317 318 318 319 318 317 318 317 317 318 318 318 321 323 323 323 323 323 323 323 326 331 331 334 338 338 338 339 341 339 334 335 336 335 334 333 333 333 333 332 332 331 331 330 328 327 324 324 326 324 323 328 330 328 329 328 327 329 329 328 326 325 326 324 321 320 319 318 318
314 315 316 317 317 318 318 319 319 318 317 317 318 317 315 315 316 317 319 320 319 318 317 318 317 316 319 319 319 321 323 323 323 323 322 322 322 327 331 331 334 338 336 336 339 340 335 331 333 334 333 332 333 333 332 331 332 331 330 329 329 327 324 323 326 328 326 325 328 329 329 328 327 328 330 328 327 323 320 321 320 318 321 323 321 319
314 315 317 317 317 319 318 319 320 319 318 318 318 316 315 316 316 314 318 320 319 318 319 319 318 318 320 319 320 320 322 324 324 323 323 322 323 329 332 329 332 335 335 336 338 336 332 330 333 333 333 332 332 332 330 330 331 331 329 327 327 326 323 324 328 328 327 326 328 329 329 328 329 330 327 323 323 322 322 322 318 316 323 326 325 324
316 317 318 317 317 319 319 319 320 318 318 318 318 317 315 316 316 315 318 319 319 320 320 319 317 317 319 319 319 320 321 324 324 325 324 323 325 330 330 328 330 335 337 337 333 330 330 331 332 332 333 332 331 330 328 330 330 328 328 328 327 324 324 327 328 328 326 326 328 328 328 330 329 325 323 321 321 322 323 320 316 320 325 325 324 325
317 319 319 317 317 318 318 319 319 318 317 316 317 318 317 317 317 318 319 318 316 317 319 319 315 315 318 319 320 320 322 324 325 326 324 323 326 329 330 329 331 334 336 334 331 330 331 331 331 332 334 333 331 329 328 329 327 326 327 329 327 322 323 326 326 326 324 323 325 327 329 328 322 319 323 323 322 323 324 322 322 325 326 325 324 325
316 318 318 317 318 319 318 318 318 318 316 313 316 317 317 317 317 317 318 317 315 315 320 321 315 314 317 318 320 320 322 324 325 325 324 325 327 330 330 331 332 333 332 332 332 332 332 331 331 332 333 332 329 327 327 327 324 324 326 327 324 321 323 324 324 324 321 319 320 323 325 322 321 324 326 324 324 325 323 321 322 322 323 324 324 323
317 318 317 318 318 318 317 317 317 317 315 314 316 317 317 316 316 318 317 317 316 317 321 321 318 315 314 318 320 320 320 323 325 326 326 327 330 330 330 331 333 332 332 333 333 332 332 332 330 330 330 330 329 326 325 324 324 325 325 324 323 323 323 322 322 321 319 315 312 316 321 323 327 329 326 324 324 322 317 316 318 319 322 324 323 323
318 317 317 318 317 317 316 316 317 316 315 315 316 317 318 317 316 317 318 317 318 318 316 318 319 315 313 317 320 321 321 322 326 328 327 329 330 330 329 330 331 331 332 332 333 332 333 333 330 327 328 330 330 327 325 324 324 324 323 322 324 324 321 321 321 319 317 312 309 317 325 328 330 327 322 321 320 316 316 319 321 323 325 324 324 324
318 317 317 317 316 316 316 316 316 316 316 317 317 317 318 317 317 317 318 317 317 317 315 316 319 317 314 317 320 321 321 323 326 327 326 328 329 330 330 331 330 331 331 331 334 333 334 335 331 327 328 328 328 328 326 325 324 322 321 322 324 323 320 320 319 319 315 311 314 323 329 329 328 324 320 320 316 314 320 323 322 322 323 323 323 323
317 317 317 317 316 316 316 317 316 316 317 317 317 317 318 319 317 316 317 316 316 316 315 315 318 318 316 316 319 321 322 325 326 325 328 329 328 329 331 330 331 332 332 332 333 333 333 335 333 330 329 327 326 328 328 325 323 321 318 320 322 322 322 320 319 319 314 313 322 328 329 328 325 321 320 319 313 313 318 321 321 321 323 323 320 319
316 316 316 316 316 316 316 316 318 318 317 317 317 317 318 318 316 315 316 316 316 315 315 316 317 318 316 317 320 323 324 325 324 327 331 330 329 331 332 331 330 331 332 331 332 333 334 334 334 332 330 328 327 328 328 325 323 321 317 320 323 322 322 320 321 321 316 320 327 328 328 327 321 319 318 313 311 314 318 321 323 324 323 320 316 312
315 315 316 316 317 316 316 316 317 318 317 317 317 316 316 316 316 315 315 315 316 315 316 317 317 318 318 320 323 325 325 326 326 328 331 330 330 331 332 332 329 328 331 333 334 334 333 333 334 332 331 330 327 327 327 324 324 322 318 321 324 322 321 321 324 324 321 325 328 327 327 321 315 317 314 310 313 319 320 322 325 325 322 320 315 310
313 315 315 316 316 316 316 315 315 317 316 316 315 315 316 316 316 316 315 314 315 314 316 317 318 319 319 322 325 325 327 328 327 327 328 328 330 330 331 332 330 328 330 335 337 332 330 332 333 331 331 331 329 328 328 325 325 323 320 322 322 321 322 324 326 325 323 326 327 325 322 313 311 314 312 313 319 321 321 322 324 324 322 321 316 310
312 314 315 315 316 316 316 316 317 317 316 316 315 316 317 317 317 316 315 315 315 314 316 317 319 320 321 323 325 326 326 327 327 326 326 327 328 329 329 332 333 332 333 335 336 332 330 331 332 332 331 331 331 331 331 329 327 325 323 324 324 321 322 325 326 323 322 324 323 320 316 310 309 311 312 317 321 321 321 321 322 323 323 321 315 310
312 313 316 316 316 316 316 316 317 316 316 317 316 314 316 318 318 316 316 317 316 315 315 316 318 322 324 325 326 325 325 326 326 326 326 327 327 328 329 331 332 334 334 333 332 332 330 330 333 333 332 331 331 331 331 330 328 327 325 325 325 323 322 324 325 323 321 321 319 318 316 313 312 313 316 321 321 320 320 320 322 322 322 320 313 308
312 313 316 317 316 316 316 316 316 315 317 319 316 313 316 319 319 317 318 318 317 316 315 317 321 323 322 323 325 325 324 324 325 327 328 327 327 329 332 332 330 333 333 330 330 331 331 331 331 332 332 332 331 331 330 328 327 328 329 329 327 325 324 324 324 322 321 320 319 319 318 317 319 320 321 322 319 317 318 320 322 321 321 318 310 306
314 314 317 317 316 316 317 317 316 316 318 317 315 315 317 320 319 319 318 317 317 316 315 317 322 323 320 321 325 324 324 325 326 328 329 328 328 329 331 332 333 333 331 329 331 331 332 331 329 329 330 331 331 331 329 327 327 329 329 329 328 326 325 324 323 321 321 320 320 320 319 319 320 321 322 323 317 314 316 320 321 320 319 315 307 305
316 314 316 318 317 316 317 316 315 317 317 317 317 318 318 319 319 318 317 316 317 317 316 314 316 320 320 320 325 326 325 327 327 327 327 327 328 329 329 331 332 332 331 332 332 330 331 331 330 330 331 330 331 331 329 327 326 328 328 328 329 328 327 326 323 321 321 321 320 321 321 321 320 318 320 321 315 311 314 318 319 320 317 311 305 305
318 316 316 317 317 317 316 316 314 315 316 316 317 317 318 319 318 319 320 317 316 317 317 314 313 322 325 323 326 328 328 328 327 327 327 327 328 329 329 330 330 331 332 331 330 330 331 332 331 332 331 331 331 330 329 327 326 326 326 327 327 326 326 326 323 322 322 321 320 320 322 323 320 315 314 314 311 309 310 312 315 318 315 308 304 305
318 317 317 317 316 317 316 315 316 315 316 316 315 315 317 317 317 320 321 317 314 316 316 314 316 325 328 325 326 327 327 327 328 328 327 326 327 328 328 328 328 330 331 331 330 330 330 330 331 331 331 331 330 329 329 329 328 327 326 326 326 325 325 324 323 322 322 321 319 320 322 322 320 318 315 311 308 307 307 308 310 313 311 306 305 305
317 318 317 317 316 316 315 316 317 316 316 316 315 314 316 317 316 317 317 316 315 315 315 317 320 325 327 325 326 326 326 327 328 328 327 326 327 327 326 327 327 328 329 330 329 328 327 328 330 330 330 330 330 329 330 330 330 328 326 327 328 327 326 324 323 322 321 322 322 321 320 321 321 321 319 315 309 306 307 307 306 308 308 306 305 305
319 319 317 316 316 316 317 318 317 317 317 317 316 316 316 316 316 316 317 319 317 315 315 318 322 326 327 325 326 325 327 328 327 328 327 327 327 326 325 326 326 326 327 328 327 326 325 327 328 327 327 327 328 329 329 328 329 329 328 328 328 327 327 326 324 321 321 324 326 324 321 320 320 322 321 319 313 307 307 307 306 307 306 305 305 305
319 318 316 317 319 318 317 317 317 317 317 315 316 316 316 317 316 315 319 322 319 317 316 317 321 326 326 325 326 326 327 327 327 328 328 327 327 326 326 326 326 326 326 326 326 326 325 325 326 325 325 326 327 328 328 327 327 327 327 327 327 326 327 327 325 324 323 325 325 325 323 321 321 321 322 322 317 309 308 308 306 307 305 306 306 304
318 317 316 318 320 320 319 318 318 319 318 316 317 317 316 317 318 319 320 319 317 316 315 316 320 324 324 325 326 325 325 327 326 327 326 326 327 327 326 326 326 327 327 327 327 326 326 326 326 326 326 327 327 327 328 327 326 325 325 326 327 326 327 326 325 325 324 324 325 326 324 321 321 321 321 324 321 314 312 310 307 307 306 307 308 308
318 318 317 317 318 319 320 320 319 318 317 317 318 318 317 316 318 324 324 320 317 316 316 318 322 324 324 325 326 325 326 326 326 326 325 325 326 326 327 327 327 328 328 328 327 327 327 326 326 326 326 327 326 326 327 327 326 325 325 325 325 326 326 325 325 325 325 325 325 326 325 323 321 320 321 324 323 319 318 315 309 307 308 311 314 314
318 318 318 318 318 319 319 319 318 317 316 317 317 317 319 318 317 321 321 319 320 321 321 321 324 326 325 326 325 324 325 324 324 325 325 326 326 327 327 327 327 327 326 327 327 327 328 327 327 326 326 326 325 325 326 326 326 326 326 325 325 325 326 326 326 326 326 327 327 326 327 325 322 321 322 325 324 321 322 319 313 310 312 317 319 319
317 317 319 319 318 318 318 317 317 316 317 316 316 317 318 320 322 321 318 318 320 321 322 324 326 326 325 325 325 324 324 324 323 324 324 326 327 327 327 326 326 326 325 325 325 326 327 327 327 327 327 327 326 325 326 327 327 326 326 326 326 326 326 326 327 327 326 327 327 326 326 326 325 324 324 324 324 323 323 321 318 317 318 320 320 320
317 317 318 318 317 316 316 316 316 316 316 315 316 318 318 320 323 323 322 322 319 318 322 325 326 326 325 324 324 324 324 324 323 323 323 324 324 325 325 324 324 324 323 323 323 323 324 324 324 325 326 327 326 326 326 326 326 325 325 326 327 327 326 326 326 327 327 327 326 326 326 325 325 324 323 323 323 323 322 321 320 320 320 320 320 320
318 318 319 317 316 316 315 315 315 316 316 316 315 316 318 318 320 322 323 325 322 321 324 325 325 324 323 323 323 323 324 324 324 323 322 322 322 323 322 322 322 321 321 321 321 321 321 322 322 322 322 324 325 325 325 325 325 325 324 325 326 325 326 326 326 327 327 326 326 326 326 326 325 324 323 323 324 324 321 320 320 320 319 319 320 320
318 318 319 318 316 316 315 315 315 315 315 316 316 316 317 317 318 320 321 321 324 325 325 324 323 322 322 321 320 317 316 317 319 318 317 318 320 321 320 320 320 320 320 320 319 318 318 318 318 318 319 321 322 323 323 323 324 324 324 325 324 325 325 325 325 326 326 326 326 326 326 326 325 325 325 324 324 324 322 321 321 320 320 320 320 320
318 318 318 318 317 316 315 315 315 315 315 315 316 316 316 316 317 318 318 318 322 324 323 322 322 321 319 316 313 310 309 309 310 310 310 311 313 315 314 313 314 314 315 315 314 313 312 312 312 314 315 316 318 319 319 320 322 322 323 323 323 324 324 324 324 324 325 325 325 325 325 325 325 325 325 325 324 324 323 322 322 321 320 320 320 320
317 318 317 317 317 316 315 316 316 316 316 316 316 316 317 316 316 316 316 316 319 321 321 321 320 319 316 311 308 307 307 307 306 307 307 308 308 308 308 308 308 309 309 309 309 309 309 309 309 310 311 312 313 314 315 316 317 318 320 320 320 320 321 322 323 323 323 324 325 324 325 325 324 324 324 324 324 324 324 323 322 321 321 321 320 321
319 319 318 318 317 316 317 318 317 318 318 317 316 317 317 315 315 316 315 315 316 319 320 320 319 317 313 309 306 306 305 305 304 304 305 306 306 305 306 306 306 307 307 307 307 307 307 307 307 307 309 309 310 311 312 313 314 315 316 317 317 317 318 319 320 320 321 321 322 322 323 323 324 324 323 323 323 323 323 323 322 321 321 320 320 320
318 318 318 317 316 316 318 318 319 319 318 316 315 315 315 315 314 315 315 314 315 316 317 317 317 314 310 307 307 306 305 304 304 304 304 305 306 305 305 305 305 307 307 308 309 308 307 306 306 306 307 308 309 309 310 310 311 312 313 314 314 315 315 315 315 315 316 316 316 318 319 319 320 321 322 322 322 322 322 322 321 321 320 320 319 319
317 316 316 316 315 316 317 318 318 317 315 314 314 315 315 315 314 315 315 315 314 313 313 313 312 310 308 308 307 306 305 305 305 306 305 306 306 305 304 303 303 304 305 305 307 308 308 308 307 306 307 308 308 309 309 309 309 310 311 312 313 313 313 313 313 313 313 313 313 313 314 314 315 317 318 319 320 320 320 320 320 319 318 318 318 318
316 316 316 315 315 316 316 317 316 315 315 314 314 314 314 314 314 314 315 315 313 312 311 311 309 309 308 308 307 307 307 306 305 305 305 306 306 306 305 304 304 303 303 304 304 305 306 307 307 306 306 307 308 308 308 308 309 309 310 310 310 311 311 311 311 311 312 312 312 312 312 312 313 313 314 315 315 316 317 318 318 318 317 317 317 318
315 316 316 315 314 314 316 317 316 316 316 314 312 311 311 312 313 314 314 314 312 311 311 311 310 309 309 308 308 308 308 307 306 305 304 304 305 305 305 305 304 304 304 304 304 304 304 305 305 305 306 306 307 307 307 307 308 309 309 309 309 309 309 309 309 309 309 310 311 311 312 312 312 312 312 313 313 314 316 316 316 317 317 317 317 317
313 315 315 314 314 313 315 316 315 315 314 312 310 309 309 309 311 312 313 313 312 310 310 310 310 310 309 309 309 309 309 308 306 305 305 305 305 304 304 303 303 303 303 303 303 303 303 303 303 304 304 304 304 305 305 306 307 307 307 308 307 307 308 308 307 307 308 308 309 309 310 311 312 312 312 312 313 314 314 315 315 315 316 316 316 316
313 313 312 312 312 313 313 313 313 312 312 310 310 309 308 309 310 312 314 312 311 310 309 309 310 310 310 310 309 309 309 308 306 306 305 305 305 305 304 304 303 302 302 302 301 302 303 303 303 302 302 302 302 303 303 304 305 305 305 305 305 307 308 307 306 306 306 306 307 308 309 310 311 311 311 311 312 312 313 313 313 314 314 315 315 315
311 311 311 311 312 312 312 312 311 311 309 309 309 308 308 310 311 312 312 311 310 310 310 310 310 309 309 309 308 307 308 307 306 305 305 304 305 304 304 303 303 302 302 301 301 301 301 302 302 302 302 302 301 302 302 301 301 300 301 303 304 305 305 305 304 304 304 304 305 306 307 308 308 309 308 309 309 310 311 311 312 312 313 313 313 314
310 310 310 310 311 311 312 312 311 310 308 307 308 308 308 310 311 310 310 309 309 310 309 309 308 307 307 306 306 305 306 305 305 304 304 304 304 303 303 303 302 302 302 301 301 300 299 300 302 301 301 301 301 301 300 299 299 300 299 300 302 302 303 304 303 301 300 301 302 304 305 305 305 305 305 306 306 307 308 309 309 311 312 312 312 312
309 309 309 310 309 310 310 311 311 310 308 307 308 308 308 310 309 309 308 308 308 308 308 307 307 306 306 306 305 305 305 304 304 304 304 303 303 302 302 301 301 301 300 300 300 299 297 299 300 299 299 300 300 300 299 298 299 301 300 299 300 300 299 301 301 300 299 299 300 300 301 301 301 302 303 304 304 305 305 306 307 308 310 311 311 312
309 309 309 309 308 309 310 310 309 309 308 307 308 308 308 308 308 308 308 308 307 307 307 306 306 306 306 305 305 305 305 304 304 303 303 302 302 301 301 301 300 300 299 299 300 298 297 298 298 297 298 300 300 299 298 298 299 300 300 299 300 299 298 299 301 301 301 300 299 299 300 301 301 302 303 304 304 305 306 305 305 305 307 308 310 311
308 309 309 308 308 308 309 308 307 307 307 307 307 306 306 306 306 306 307 306 306 306 305 305 305 305 305 305 305 304 304 303 303 302 302 301 301 300 300 300 300 299 299 300 300 298 297 299 299 298 300 301 299 298 298 298 298 299 299 300 300 300 300 300 301 301 301 301 301 301 301 301 302 303 303 304 304 305 305 305 304 305 305 306 307 309
308 308 308 307 307 307 307 307 306 307 306 306 306 306 305 305 305 305 304 305 305 305 304 304 304 303 303 304 304 303 302 302 302 301 301 301 300 300 300 300 300 300 300 300 300 298 298 299 299 300 300 300 299 299 298 298 298 298 299 299 300 300 300 301 301 301 301 302 302 301 301 301 301 301 302 302 303 304 304 304 305 305 305 305 306 307
306 306 307 307 307 307 307 306 306 306 305 305 305 305 305 305 304 304 304 304 304 303 303 303 303 302 301 302 302 302 301 301 301 300 300 300 300 300 300 300 300 300 299 300 299 298 298 299 299 299 299 299 299 299 298 298 298 299 299 299 299 299 299 300 300 301 301 301 301 302 302 302 302 302 302 302 302 303 303 304 303 304 304 305 305 306
305 305 305 306 306 306 306 306 306 305 305 305 304 304 304 303 303 303 303 302 302 302 302 302 301 301 301 300 301 301 301 301 300 300 300 300 300 300 300 299 299 299 299 299 299 298 298 298 298 298 298 298 298 298 298 298 298 298 298 298 298 298 299 299 299 299 300 300 300 301 301 301 301 302 302 302 302 302 302 302 302 302 303 304 304 304
304 304 304 305 306 306 306 305 305 305 304 304 304 303 303 303 302 302 302 302 301 301 301 301 301 300 300 300 300 301 301 300 300 299 299 300 300 299 299 299 298 298 298 298 298 297 297 297 297 297 297 297 297 297 297 297 297 297 298 298 298 298 298 298 298 298 299 299 299 299 299 300 300 300 301 301 301 301 301 301 301 301 302 302 302 302
305 304 304 304 305 305 305 305 305 304 304 304 303 303 303 303 302 302 302 302 301 301 301 301 301 300 300 299 300 300 300 300 299 299 299 299 299 298 298 298 298 298 297 297 297 297 296 296 296 296 296 296 297 297 297 297 297 297 297 297 297 297 297 297 297 298 298 298 299 299 299 299 299 299 300 300 300 300 300 301 301 301 301 301 301 301
304 304 304 304 304 304 304 304 304 304 304 303 303 302 302 302 302 301 301 301 301 300 300 300 300 300 300 299 299 299 299 299 298 298 298 298 298 298 298 297 297 297 297 296 296 296 296 296 296 296 296 296 297 297 297 297 297 297 297 297 297 296 296 296 297 297 297 297 297 298 298 298 298 299 299 299 299 299 299 299 300 300 300 300 300 300
Wind_Speed
12 8 8 9 10 12 13 14 15 17 18 14 13 14 13 11 11 14 14 11 17 13 13 14 14 14 13 15 13 13 16 13 11 12 15 15 17 18 18 17 19 19 18 17 16 18 15 13 15 12 16 17 17 16 18 18 18 18 19 18 17 18 17 17 19 18 17 15 15 13 11 10 7 7 8 7 7 7 7 7 4 4 5 5 5 5
11 9 9 12 13 14 14 14 14 17 17 13 12 15 11 10 11 13 14 12 14 9 10 13 13 13 13 14 13 14 17 14 12 12 14 15 17 18 18 17 19 19 17 16 16 17 13 16 19 19 19 20 19 19 18 17 18 18 18 17 17 17 17 19 19 17 16 16 15 12 10 9 5 6 8 8 9 8 9 9 5 4 5 4 5 5
9 9 12 15 13 13 14 11 12 15 14 10 9 11 9 6 10 10 10 9 10 5 7 11 11 11 12 14 12 12 13 14 15 15 15 17 17 17 17 16 18 19 16 17 17 14 17 29 30 25 21 19 19 20 19 17 18 19 19 17 16 16 18 20 20 17 16 16 15 12 10 9 8 10 10 8 7 5 6 6 4 5 7 7 7 7
7 10 15 15 13 14 12 6 6 8 7 8 8 8 8 8 10 5 4 5 9 5 6 7 8 8 12 12 10 14 13 15 16 16 17 18 17 17 17 16 17 18 16 15 13 12 24 32 28 23 21 19 18 20 21 18 18 19 19 17 15 16 19 20 19 17 16 16 15 13 12 11 12 13 10 8 8 7 8 6 4 6 9 8 7 7
10 12 14 15 16 15 10 5 6 6 5 9 10 10 9 10 12 7 6 6 7 7 6 6 8 7 11 11 9 13 11 13 14 16 16 19 18 17 17 16 15 16 14 10 17 24 28 28 23 22 20 17 18 20 20 19 18 17 17 16 15 16 19 19 18 17 15 14 14 13 13 12 11 11 8 8 8 7 6 6 6 7 7 7 8 7
12 9 7 13 15 10 8 8 10 9 6 9 11 13 15 15 16 10 6 7 4 5 7 7 9 7 8 11 11 10 8 10 13 14 15 18 18 16 14 14 14 12 12 17 22 21 21 23 23 23 20 17 19 20 19 19 17 15 16 17 17 19 20 19 18 17 14 13 12 12 12 12 9 8 9 7 7 7 6 6 7 8 7 7 7 6
9 8 5 9 8 7 9 9 10 11 7 8 10 13 17 19 18 14 7 6 5 5 6 9 9 5 7 13 14 11 10 13 14 11 14 17 14 13 12 13 11 11 18 19 14 11 16 23 24 23 20 17 20 21 20 19 17 16 18 18 20 22 22 20 20 19 15 13 11 10 10 9 7 8 8 8 7 8 7 6 7 7 7 7 6 5
8 10 8 9 8 7 9 8 10 12 9 8 10 13 17 18 17 15 13 8 5 5 6 9 10 6 7 11 12 13 13 13 13 11 12 11 9 13 10 8 7 15 16 11 15 19 24 28 27 23 19 17 20 23 23 22 19 18 20 21 23 24 22 22 21 19 17 14 12 11 9 8 7 8 9 9 9 8 7 5 5 6 7 7 6 6
8 10 9 9 10 8 9 10 11 13 10 10 13 13 13 14 15 14 10 7 5 5 6 8 9 7 6 6 9 13 14 13 12 12 11 7 14 13 11 5 15 13 10 8 16 25 28 29 26 19 18 20 22 24 24 24 23 22 22 23 24 23 22 23 21 19 18 16 14 13 11 9 9 10 9 9 8 7 6 7 7 8 7 7 7 7
8 11 12 10 8 8 10 12 13 13 11 11 14 13 10 10 12 11 8 7 6 5 6 8 7 6 6 5 7 10 12 12 10 11 11 10 15 13 11 19 22 13 10 7 13 24 25 24 21 18 21 24 25 26 25 24 25 27 27 27 25 23 23 24 23 22 20 18 16 13 12 11 11 10 9 8 8 7 8 8 9 9 7 7 8 8
5 6 10 9 9 10 11 12 13 14 13 12 11 10 9 9 9 9 8 6 6 5 8 11 10 8 8 5 6 8 9 10 9 9 8 11 16 15 16 25 21 14 13 9 12 21 21 20 21 23 27 26 26 28 27 25 27 30 31 30 29 26 25 25 25 24 22 19 18 15 13 13 12 11 11 9 8 8 8 8 7 7 6 6 6 6
10 5 5 6 10 13 12 9 9 10 12 10 7 7 8 7 6 7 6 5 6 5 8 13 13 10 8 4 5 5 5 7 7 8 8 8 14 15 18 23 19 15 14 11 12 20 21 20 22 26 27 27 29 29 29 28 29 31 32 31 30 29 27 26 25 23 22 20 19 17 16 16 14 13 11 10 9 8 8 8 7 6 6 4 3 4
11 9 7 8 12 15 11 6 6 6 8 9 7 7 7 5 5 6 6 6 6 7 9 11 10 7 4 1 2 2 2 2 3 8 11 11 13 14 18 21 18 17 16 12 15 21 22 22 25 27 25 27 31 31 31 31 30 31 33 32 31 30 28 26 23 22 22 22 20 18 18 17 16 13 11 10 9 9 8 9 8 6 5 3 3 4
8 9 11 10 10 13 11 7 7 7 8 9 7 7 7 5 5 6 6 6 6 7 10 8 4 3 1 4 5 7 8 9 11 7 12 15 13 13 16 19 16 16 15 13 18 22 21 22 26 27 25 27 31 32 32 31 29 29 29 29 29 29 27 24 23 23 23 24 22 20 18 17 15 13 11 10 10 9 9 9 8 6 6 5 5 6
8 8 10 11 8 11 13 11 9 6 8 10 8 8 7 5 4 5 5 5 4 4 7 8 4 1 2 4 7 10 9 10 12 11 9 10 10 12 14 17 16 15 12 12 18 20 20 23 26 27 29 29 27 29 31 29 27 26 26 26 26 28 27 24 24 25 24 24 23 21 20 17 16 14 12 11 10 9 9 9 9 7 7 8 7 7
10 8 9 13 11 12 14 14 13 10 6 7 9 9 6 5 4 3 3 2 1 3 5 5 3 3 4 4 7 9 8 8 9 8 10 12 10 10 14 17 16 14 12 15 18 19 19 23 27 28 28 27 24 25 29 27 24 24 24 25 25 27 28 27 27 28 26 24 23 22 21 18 16 14 13 11 10 10 10 10 10 9 9 9 8 7
8 8 6 13 15 13 14 13 12 11 4 1 6 9 7 7 6 2 2 2 2 3 3 3 3 4 4 5 7 9 9 8 7 8 11 12 12 12 12 14 12 12 15 18 20 22 21 21 24 26 23 24 26 27 27 27 27 25 23 24 26 27 29 29 29 29 27 25 23 22 21 19 17 15 14 12 11 12 12 11 10 10 11 10 8 7
6 6 4 6 13 14 14 13 13 13 8 3 3 4 5 5 5 2 2 3 3 5 5 5 5 4 5 5 8 10 10 10 8 11 12 9 7 8 8 9 9 12 17 17 17 20 20 20 22 23 23 25 29 30 29 28 29 29 25 24 27 30 31 30 30 30 28 26 24 22 21 20 18 16 14 12 12 13 13 13 12 12 12 10 7 7
6 5 5 10 13 13 12 11 11 12 13 9 3 2 3 3 3 2 2 3 4 5 4 6 9 6 2 2 8 9 10 11 9 9 9 6 4 3 4 8 11 15 18 16 14 15 18 20 19 19 23 24 25 28 29 28 27 28 28 25 25 29 30 30 31 31 28 26 25 22 20 19 18 17 15 14 13 13 14 14 14 14 13 10 8 9
3 3 4 9 10 9 10 7 7 8 11 10 5 3 4 3 2 2 2 3 5 5 4 7 7 2 4 1 9 11 11 11 9 9 8 1 2 1 3 8 12 14 16 15 13 15 18 17 15 16 18 18 20 24 27 26 24 25 27 26 26 27 28 30 32 30 27 26 25 22 21 19 17 16 16 14 13 13 14 15 15 15 14 11 10 10
4 2 2 5 8 7 6 6 7 7 7 8 6 6 6 4 4 4 3 4 5 5 3 4 3 3 5 3 9 14 10 9 10 10 10 6 4 3 5 8 11 12 15 17 15 16 16 15 16 18 16 15 18 21 22 22 22 23 24 24 23 24 25 28 28 28 26 25 24 23 21 19 17 16 15 13 12 12 13 14 16 16 15 13 13 12
2 4 3 5 6 6 6 6 9 10 9 8 7 7 7 6 5 4 4 5 5 4 2 1 1 3 4 3 9 12 9 8 10 12 14 13 12 12 12 12 13 14 15 18 17 15 14 14 16 18 17 17 18 18 19 20 20 21 22 22 21 20 22 23 25 27 26 23 22 23 22 20 18 17 16 14 13 14 14 16 17 18 17 16 15 14
1 2 5 6 5 6 9 9 8 10 12 12 9 7 7 7 5 4 4 4 4 3 2 1 3 3 4 4 8 10 9 10 11 13 16 16 16 18 19 21 22 20 18 18 17 15 14 14 16 17 17 17 17 16 17 18 18 18 18 20 20 19 19 20 22 25 24 20 20 22 22 22 21 19 17 16 15 15 16 17 18 18 18 16 15 15
3 2 5 3 2 6 10 11 14 14 11 10 8 7 7 7 7 7 4 2 3 3 2 2 3 3 3 3 7 10 13 13 13 14 15 15 17 17 18 21 22 19 17 16 16 16 15 15 15 15 14 14 14 15 15 16 17 16 15 15 16 17 17 18 20 22 22 20 20 21 22 23 22 20 18 17 17 17 18 18 17 16 16 16 15 15
2 3 4 2 1 4 6 6 8 10 9 6 7 8 10 10 7 4 2 2 2 4 5 3 1 3 2 3 7 9 12 12 11 13 14 14 16 17 15 17 19 18 17 15 15 16 14 13 12 12 12 11 12 13 13 13 14 15 15 15 15 15 16 18 20 21 21 20 20 21 22 23 24 22 21 20 19 19 19 18 17 17 16 15 14 13
1 2 2 4 4 3 4 3 2 4 6 7 12 13 13 14 9 0 3 1 3 5 6 2 4 3 3 8 11 8 8 8 7 7 11 11 13 15 15 16 17 18 17 16 15 14 12 11 10 10 11 10 10 11 11 11 12 14 15 15 15 15 15 16 18 18 18 18 18 20 21 24 26 26 23 21 20 21 21 18 17 18 16 14 12 12
1 1 3 4 4 2 2 1 1 3 5 8 16 18 14 14 12 3 2 2 2 0 2 1 7 8 5 9 12 7 7 8 5 6 5 7 12 14 14 16 17 17 17 17 16 15 13 12 11 10 10 9 9 9 9 11 12 13 14 14 15 15 15 15 15 15 15 15 16 18 20 23 26 25 22 21 21 21 20 18 16 16 15 14 12 12
2 3 5 5 6 6 5 2 2 1 6 10 15 16 16 16 12 5 3 2 2 2 1 2 7 10 7 8 10 9 8 9 6 3 2 4 12 15 15 17 18 18 18 17 17 16 14 13 12 11 11 10 9 9 8 9 10 11 12 13 14 13 14 15 15 15 15 14 14 15 17 19 21 21 20 20 22 21 18 16 14 13 12 12 12 12
4 4 5 5 7 5 5 3 1 2 5 7 11 14 14 16 16 12 9 8 4 3 4 7 9 11 9 8 11 10 8 8 10 11 7 4 8 12 15 17 17 17 18 18 17 17 15 14 12 11 11 9 8 8 8 7 8 9 9 10 12 12 13 14 15 14 13 12 12 13 14 15 15 15 16 17 20 20 17 15 16 15 13 13 13 13
2 2 2 5 6 4 2 0 3 2 4 2 6 11 13 14 15 15 14 14 6 6 12 13 13 12 9 9 11 11 11 12 12 12 11 7 7 10 15 17 17 19 19 18 18 18 17 16 14 12 11 8 7 8 7 6 7 8 6 5 7 8 9 9 9 9 8 7 8 9 10 11 12 13 14 15 17 17 15 16 18 19 17 16 16 16
2 1 2 3 5 5 4 3 1 2 2 2 1 5 9 11 11 12 11 12 6 9 16 15 14 11 7 10 13 15 18 17 15 16 16 13 10 12 16 19 19 20 20 19 19 20 20 20 19 17 14 10 8 8 9 8 8 8 7 5 4 5 6 5 5 6 6 5 5 6 7 8 10 13 14 15 14 13 13 15 18 20 20 19 18 18
2 2 2 3 5 4 5 6 4 1 1 2 4 2 2 6 8 9 9 8 5 5 12 12 10 7 7 11 15 17 20 20 19 20 23 24 25 23 23 24 25 24 23 22 22 22 22 22 21 21 20 17 13 11 11 10 9 7 7 7 7 7 6 6 5 5 5 4 4 4 5 5 7 11 12 12 11 10 10 11 14 17 19 19 19 19
2 1 4 5 5 4 5 5 4 2 2 4 4 4 4 3 6 8 10 11 9 3 2 5 7 8 10 12 13 13 16 18 19 19 20 23 28 28 26 27 28 29 28 27 25 23 23 23 22 21 20 20 19 17 15 13 11 10 8 9 11 11 10 9 7 5 6 5 5 4 4 5 6 7 7 7 6 7 7 8 10 12 14 16 19 22
3 3 3 2 3 4 1 6 5 3 3 1 3 2 3 4 7 8 7 9 8 5 3 6 10 12 12 12 12 12 14 16 20 22 23 24 26 28 27 26 27 28 27 26 25 24 23 22 22 22 20 18 18 18 17 15 13 12 9 9 11 11 10 10 9 8 8 7 8 7 5 4 5 5 5 5 4 4 5 5 6 8 9 11 17 21
2 5 3 0 1 1 1 3 4 2 1 1 3 3 4 7 10 12 9 6 7 8 10 11 11 13 15 16 16 17 18 21 25 26 26 26 25 27 27 25 25 24 23 23 20 19 19 20 21 21 20 18 17 18 19 19 18 17 13 10 10 10 10 10 10 10 10 9 10 10 8 7 6 5 4 3 3 3 4 4 5 8 9 10 12 15
3 4 1 0 1 1 2 3 2 0 1 2 3 3 5 7 10 9 7 5 6 9 11 12 12 15 19 20 18 17 18 22 24 22 20 19 19 21 24 24 23 22 21 19 16 13 12 12 14 16 17 16 15 16 18 20 20 20 19 15 12 10 10 11 10 10 10 10 11 10 9 9 8 7 6 5 4 3 0 2 4 6 9 10 11 12
4 1 1 0 1 1 2 2 1 1 1 2 4 5 5 4 3 4 4 4 6 8 10 11 12 14 17 18 17 16 16 18 17 14 14 15 14 14 16 17 17 17 18 16 14 12 10 6 5 7 8 8 9 8 11 14 16 17 19 19 16 13 13 13 13 12 12 11 11 10 8 8 7 6 5 5 4 3 2 2 2 3 5 6 8 9
4 4 1 2 1 2 2 2 1 1 1 2 6 8 8 9 7 4 7 7 7 11 12 12 10 12 15 16 16 16 14 12 8 7 12 16 17 17 16 14 12 12 12 12 12 13 12 10 9 7 5 5 5 4 5 7 8 8 9 12 14 11 10 11 13 12 12 12 12 11 9 7 7 6 5 5 5 2 1 2 3 5 5 5 5 7
2 5 2 3 3 4 4 3 1 0 0 2 6 8 8 10 10 4 4 6 8 13 16 14 12 13 15 16 16 13 9 7 5 7 11 13 16 18 19 17 15 13 13 13 13 13 13 13 13 13 11 11 10 8 7 6 5 5 4 6 10 9 5 4 7 8 7 8 9 10 9 7 5 2 2 3 4 3 2 1 2 4 7 7 5 5
4 1 1 3 3 3 3 2 1 2 3 4 6 6 7 9 8 3 3 5 9 15 18 16 15 15 15 15 11 5 4 6 9 12 14 13 12 14 15 15 14 12 11 10 9 9 9 8 9 9 10 10 11 10 10 9 7 6 6 5 8 9 7 6 7 7 6 7 8 9 8 6 5 5 3 2 2 2 2 2 2 2 5 8 7 6
4 3 2 4 2 2 2 0 2 3 3 7 9 8 8 8 5 1 4 4 7 13 15 14 14 15 14 13 11 10 11 14 15 16 16 14 13 12 11 11 10 10 10 9 8 8 7 6 6 6 7 7 7 7 7 8 7 7 7 6 5 6 8 9 9 9 9 9 8 7 8 8 9 11 12 10 9 8 8 7 7 5 5 7 8 9
4 3 3 3 3 3 1 2 2 3 2 7 10 9 8 5 2 3 5 8 12 12 13 15 18 19 18 17 17 16 17 18 17 15 14 12 11 10 9 8 8 8 8 8 6 5 6 7 5 5 6 6 6 5 5 7 7 7 8 7 5 6 8 10 13 14 13 11 9 9 11 12 14 16 17 16 15 14 13 13 12 9 7 8 9 11
4 4 2 3 4 4 0 3 3 3 3 6 7 5 6 4 4 6 9 15 18 14 14 17 18 17 17 18 19 18 17 16 15 13 12 10 9 8 7 7 8 7 6 7 5 5 5 6 5 6 6 6 6 6 7 7 7 7 8 8 9 10 10 11 13 14 14 14 14 15 16 16 17 17 18 18 18 17 16 16 16 14 12 10 10 11
5 4 2 4 4 4 2 4 3 3 6 7 6 7 10 12 9 7 11 15 15 14 15 16 14 14 15 17 17 16 15 14 13 11 10 9 7 6 6 6 6 5 5 6 4 5 6 5 6 7 6 5 6 8 9 8 7 7 9 10 11 13 13 12 12 13 14 15 16 16 15 14 14 14 15 15 16 16 16 18 19 19 18 16 14 14
6 5 4 5 5 5 5 6 6 7 10 12 14 15 18 19 18 16 16 16 14 15 16 15 13 13 13 14 15 13 11 11 9 8 8 7 6 6 6 5 5 4 5 5 3 5 6 5 5 6 5 5 7 10 10 10 9 9 9 10 11 12 12 12 13 14 15 14 14 15 14 14 13 13 13 14 15 16 17 18 18 19 19 19 18 18
6 5 4 6 7 9 9 9 10 11 11 12 14 15 16 17 18 20 21 19 16 16 16 14 12 11 9 10 12 11 9 8 7 7 6 6 6 6 6 5 5 4 4 4 3 5 6 5 4 4 4 5 8 9 9 10 10 10 10 10 10 10 10 11 12 13 14 14 15 16 16 16 16 15 15 15 15 16 17 17 17 19 19 19 19 20
5 3 3 5 4 3 5 7 9 9 10 10 11 12 13 14 15 17 18 18 17 16 15 13 11 10 9 8 8 9 8 7 6 6 5 6 6 6 6 5 5 4 4 3 3 5 6 5 4 5 5 7 8 9 9 10 10 10 11 11 12 12 12 12 12 13 13 14 14 15 15 15 16 16 16 16 16 16 17 16 17 18 19 19 19 20
4 5 2 5 3 2 6 10 10 10 11 10 10 11 11 12 13 14 15 16 15 15 13 12 10 8 8 8 7 8 8 7 6 5 5 5 6 6 5 5 5 4 4 3 3 4 5 5 5 5 6 7 8 8 8 8 8 8 9 10 10 11 11 12 13 14 14 15 15 15 15 16 17 18 18 17 17 18 18 18 18 18 18 18 18 19
3 5 3 6 6 6 8 10 11 11 10 10 12 12 11 11 12 12 12 12 12 11 10 10 9 9 8 7 6 6 7 7 6 5 5 5 5 5 5 5 5 5 4 4 4 5 5 5 5 6 6 6 7 7 7 7 7 7 8 9 9 10 10 11 11 12 13 14 15 15 16 16 17 18 18 18 18 18 19 19 19 20 21 21 21 21
3 4 4 3 4 4 6 7 6 5 7 9 11 11 11 11 11 10 10 10 9 8 8 8 8 9 9 8 7 6 6 6 6 5 4 4 5 5 5 5 5 5 5 5 5 5 5 5 5 5 5 5 5 5 6 6 7 7 8 10 10 10 11 12 12 12 12 12 12 13 14 14 14 14 15 16 17 19 20 20 19 20 21 22 23 24
7 7 6 4 4 6 8 7 4 5 8 11 10 9 9 8 7 7 7 6 4 4 5 5 4 4 5 5 4 5 5 5 5 5 4 4 5 5 4 5 5 5 5 5 5 5 5 5 5 5 5 5 5 5 6 6 7 8 8 9 10 11 11 12 13 13 13 13 12 14 15 15 14 15 16 15 14 16 19 20 20 21 22 21 20 21
Wind_Direction
205 209 219 221 226 225 222 229 241 243 247 269 297 285 242 225 243 234 240 213 175 186 202 211 220 204 220 239 223 174 174 217 210 199 230 205 191 197 186 191 200 200 201 197 200 207 203 183 177 148 120 150 163 149 150 149 145 145 144 144 144 149 151 147 144 136 130 126 117 117 129 138 152 149 138 133 127 123 116 110 109 114 111 112 113 107
208 221 228 224 229 235 229 223 238 253 262 275 292 290 260 220 236 233 235 215 172 186 203 196 222 219 212 229 226 193 177 201 211 204 231 219 199 205 204 203 197 193 201 196 193 202 177 130 131 129 126 148 152 142 146 144 141 144 147 150 149 151 151 143 138 133 129 124 116 118 127 131 141 140 141 155 162 165 156 151 158 127 107 99 100 94
211 228 233 232 231 238 242 230 231 247 260 274 273 277 281 244 236 230 232 216 159 180 216 188 212 231 228 227 220 213 190 183 197 205 230 229 208 203 206 207 195 188 200 196 191 190 136 108 109 119 133 151 151 138 140 143 144 147 152 156 155 153 149 142 137 135 133 126 120 123 132 140 146 151 160 160 146 140 137 143 161 130 102 77 65 61
207 226 228 233 235 231 237 249 262 259 251 263 262 254 271 269 248 221 178 159 128 153 242 230 229 231 235 229 217 231 206 170 189 211 227 230 214 203 205 214 205 188 196 195 172 130 107 104 110 126 140 155 153 138 139 147 152 153 156 160 159 153 148 144 140 137 135 128 129 142 154 164 169 171 174 149 125 117 115 121 132 124 109 100 98 88
223 227 216 219 230 227 223 226 248 264 250 246 252 250 258 266 259 238 156 154 144 161 202 247 256 240 234 223 216 234 198 163 198 215 223 228 214 201 205 219 212 187 189 166 109 92 96 105 122 139 149 157 148 139 143 147 154 158 155 156 158 155 151 147 140 140 143 138 144 160 167 178 188 179 160 129 115 108 113 119 109 109 107 110 123 120
234 239 220 218 217 204 209 223 225 233 254 248 237 243 255 265 271 264 170 158 189 201 187 208 241 238 229 228 226 223 178 178 217 217 221 226 208 197 205 214 204 170 136 112 101 91 99 114 129 140 144 145 139 139 144 146 152 156 153 155 156 157 155 149 144 147 152 148 151 170 179 185 183 152 135 123 113 112 122 119 111 123 122 114 124 128
240 237 227 230 207 176 209 228 227 222 236 252 232 227 243 258 270 276 252 195 206 236 203 200 230 243 219 225 224 213 193 197 211 209 219 223 196 174 198 213 192 127 96 102 125 142 133 125 126 132 137 143 144 146 149 150 154 152 153 157 156 159 158 153 153 153 156 150 147 172 184 174 151 136 145 144 139 155 166 157 145 145 132 122 123 104
235 223 204 226 223 206 224 229 223 219 223 246 241 222 224 239 253 262 269 258 223 236 226 204 217 240 233 218 209 210 209 201 201 201 212 216 137 125 192 214 113 97 95 121 165 159 140 126 122 130 144 157 156 154 158 159 157 155 157 159 160 162 159 158 157 153 156 151 149 168 164 146 151 166 172 162 163 182 177 146 119 108 108 110 103 95
212 216 193 212 226 223 232 235 222 218 225 237 247 248 230 224 234 242 256 259 228 228 240 218 212 237 252 213 197 211 213 201 196 195 198 169 108 130 199 142 86 100 120 155 162 143 132 127 129 139 153 164 165 162 165 164 158 158 158 157 159 161 159 159 156 154 160 158 157 160 147 154 186 188 178 168 172 172 139 115 117 123 131 133 128 126
208 219 212 205 219 232 230 231 223 216 227 239 247 264 262 232 226 231 239 242 231 228 242 231 213 238 251 198 189 214 212 202 197 196 194 154 133 161 163 104 94 115 145 167 149 137 138 137 141 156 158 163 171 171 172 169 163 163 161 159 162 164 163 160 158 161 163 161 160 154 153 181 194 179 166 168 171 160 143 146 158 157 152 152 151 147
228 221 234 219 212 231 231 229 227 217 220 231 238 249 253 239 227 224 231 241 237 228 243 237 218 230 249 209 192 210 200 195 198 191 171 146 156 164 126 111 116 132 156 182 144 137 152 148 146 162 164 165 170 173 177 175 171 170 167 168 171 170 168 164 164 164 162 162 160 156 171 189 183 168 167 174 173 161 156 157 155 152 153 164 171 166
236 211 238 240 225 232 236 234 234 225 218 218 224 238 238 227 224 229 225 232 239 227 238 240 224 221 242 230 195 202 192 191 183 151 120 129 164 153 116 121 139 154 176 195 149 138 149 148 152 165 167 167 168 172 178 179 177 176 173 173 175 174 172 167 165 165 163 163 159 162 181 186 176 173 175 176 168 156 153 145 141 157 168 173 177 162
232 224 211 219 231 236 241 232 219 225 228 220 212 226 239 219 209 228 222 218 234 229 229 239 235 219 227 229 159 104 65 71 86 132 158 173 174 152 127 128 143 168 184 175 145 139 136 138 151 161 166 170 172 174 179 181 181 179 177 176 174 174 171 167 167 169 167 162 159 169 184 183 176 176 175 168 159 154 153 150 156 170 165 163 167 144
218 231 221 212 219 226 235 236 208 199 214 227 225 219 226 222 214 222 226 226 229 228 225 226 244 232 151 80 98 98 86 64 45 79 166 173 170 161 144 137 149 179 182 149 138 138 132 139 152 163 174 179 180 180 180 181 183 182 182 178 175 174 172 169 171 174 173 168 166 171 179 179 175 171 166 160 155 157 161 160 163 166 169 184 180 149
215 225 216 210 204 198 213 237 240 221 203 211 226 236 230 223 235 228 225 242 244 251 238 212 199 210 162 98 88 94 97 86 63 68 109 128 152 171 161 148 155 179 179 147 144 142 138 148 159 169 178 178 179 180 178 179 181 182 184 180 177 178 177 176 178 179 179 177 175 173 172 174 175 170 161 158 159 162 167 165 160 168 191 198 185 165
233 235 202 203 209 195 202 226 249 253 230 206 214 233 235 215 230 238 229 254 295 314 277 218 177 83 133 137 97 97 104 101 92 88 78 73 93 134 153 155 161 171 155 132 141 151 151 157 164 171 176 174 172 174 174 176 180 183 186 185 184 184 183 182 183 184 181 179 181 177 169 168 172 167 156 160 171 171 170 166 163 180 199 200 192 185
238 250 206 194 202 205 206 213 234 241 242 261 226 226 231 215 206 208 224 190 140 249 254 165 103 84 151 161 123 126 131 117 102 83 66 60 74 92 120 147 165 160 137 128 138 150 155 162 169 172 173 175 174 174 173 175 178 181 184 186 188 189 189 188 186 185 182 181 183 179 168 164 166 159 153 168 183 176 170 168 171 185 197 204 202 193
235 261 286 236 214 206 208 211 223 230 223 226 246 263 289 243 200 150 213 200 192 239 228 165 164 178 202 183 142 150 144 118 95 79 62 48 68 81 95 120 131 121 116 122 132 140 153 169 174 173 171 173 173 173 175 178 180 181 182 188 194 194 193 192 189 188 186 183 182 177 168 165 164 158 158 178 189 179 173 173 176 189 200 205 198 184
225 251 290 275 242 200 197 218 223 226 229 231 238 328 320 269 212 186 221 217 218 238 241 215 203 192 228 169 144 146 129 112 106 98 80 46 52 77 85 92 100 107 106 109 123 143 163 171 169 167 167 167 166 167 173 179 182 181 182 187 194 193 191 192 191 189 187 184 180 175 169 168 168 167 172 185 190 184 182 180 179 191 203 203 189 181
211 251 254 258 254 201 187 219 227 219 229 236 234 211 214 214 209 231 265 245 234 232 232 233 218 131 21 27 131 121 114 120 128 113 100 79 322 14 95 89 89 106 111 112 134 155 162 163 155 153 155 157 160 163 166 173 179 183 185 187 192 195 195 194 191 186 184 182 180 177 174 173 174 178 184 191 192 188 190 192 189 191 198 194 186 183
182 175 234 258 265 239 204 209 225 231 230 229 230 226 225 212 191 198 230 255 257 248 235 245 230 81 22 4 116 118 123 132 134 128 127 157 203 193 161 127 106 113 123 128 143 153 152 149 142 137 135 135 144 151 154 161 171 180 186 186 189 194 194 192 190 187 184 182 181 181 181 179 177 181 188 191 192 190 192 198 195 192 193 191 186 183
179 173 206 251 252 256 262 237 225 239 244 234 227 226 231 232 217 212 226 237 250 260 265 267 173 85 48 65 114 125 141 136 129 128 128 143 167 174 171 158 144 146 141 134 139 147 145 138 132 129 129 129 134 141 150 159 164 169 177 178 179 182 184 187 190 190 186 182 183 186 188 186 183 186 190 187 188 191 193 198 197 192 191 189 185 182
54 193 208 227 244 263 273 285 288 272 256 244 239 236 235 235 227 224 229 231 241 265 284 157 137 98 81 110 122 127 129 125 121 115 119 135 150 154 159 163 162 161 152 141 141 145 141 132 130 127 123 125 129 133 146 158 156 155 163 167 168 172 175 178 182 184 186 189 190 190 193 193 190 191 194 189 189 193 198 202 200 195 191 186 185 183
62 274 229 214 309 283 277 308 318 304 282 258 249 248 250 245 235 232 241 243 219 223 247 225 151 119 100 109 124 125 118 116 119 117 122 130 130 132 140 144 141 137 133 130 128 131 133 130 129 126 119 122 129 129 136 148 152 154 159 161 163 166 169 173 177 182 188 194 195 193 194 193 191 193 196 192 189 193 203 207 202 197 191 185 186 183
54 268 246 228 275 268 278 305 308 310 323 318 291 270 254 249 248 256 315 357 264 244 249 251 135 110 129 117 113 119 115 108 111 123 132 131 125 125 121 115 115 116 118 119 119 123 128 126 125 124 120 118 124 132 138 144 149 156 159 161 165 166 168 175 180 184 186 190 195 196 194 193 194 197 199 197 192 192 202 209 202 195 191 188 189 183
175 230 234 258 248 241 271 257 250 327 339 334 323 308 273 255 252 52 56 353 269 277 279 257 113 118 155 120 103 93 92 77 52 90 121 129 126 124 118 113 112 111 112 113 115 118 120 121 122 123 122 120 120 130 138 136 140 151 156 160 163 161 163 171 176 180 182 184 190 193 192 195 200 202 201 199 191 190 200 208 202 195 192 192 193 183
165 181 191 235 245 229 260 219 89 341 315 330 335 334 321 290 272 240 138 198 188 321 318 208 144 147 141 109 103 100 97 83 27 17 71 117 118 108 106 109 107 105 107 107 106 108 110 112 113 112 116 120 121 127 134 134 139 150 156 159 160 159 161 165 170 175 177 178 186 192 194 198 204 204 203 199 188 186 200 206 201 196 192 192 194 188
197 200 190 208 232 230 234 217 122 266 290 325 334 338 346 340 325 304 265 251 168 160 178 169 146 131 108 82 92 114 123 120 127 114 23 87 107 104 101 102 102 102 101 97 96 97 98 104 110 110 108 109 116 124 125 130 143 154 158 158 159 165 173 175 177 181 182 185 193 199 199 200 201 198 199 198 188 184 190 191 188 192 192 192 195 197
233 215 176 201 232 234 242 253 124 178 246 305 336 343 354 3 14 17 351 329 290 211 138 118 115 107 103 89 79 89 105 110 122 133 138 109 93 98 99 95 95 98 95 90 89 87 85 90 98 99 98 98 106 117 121 134 149 156 164 164 163 175 188 187 183 181 182 192 202 204 199 194 195 196 198 200 196 192 189 181 179 184 190 198 203 207
309 273 202 210 219 203 182 204 43 88 193 225 354 358 1 10 30 37 9 343 338 120 115 114 108 95 99 101 82 70 74 81 94 107 116 120 108 99 97 93 91 90 87 85 83 76 72 74 74 75 82 90 94 93 103 122 128 131 150 167 163 170 179 179 174 169 170 187 200 201 192 181 184 195 200 203 204 202 198 191 188 188 189 196 202 210
342 253 264 242 225 210 181 175 104 62 100 115 56 3 8 15 31 49 32 351 350 106 112 111 107 96 91 86 72 57 54 59 66 65 60 63 80 89 87 86 86 85 84 83 77 67 63 62 59 59 63 72 80 71 67 75 87 104 127 138 128 129 133 139 144 144 152 173 185 185 178 167 173 187 195 200 200 200 202 201 200 202 203 201 203 211
301 185 189 233 242 224 199 204 203 125 26 255 217 207 28 34 37 48 47 13 346 117 120 114 109 111 101 77 61 51 51 53 56 56 55 59 66 69 66 64 68 72 73 71 66 59 55 54 55 58 60 62 64 54 45 50 59 74 96 100 90 90 98 111 124 124 127 142 152 156 157 148 160 179 188 194 196 202 212 214 212 217 219 214 212 216
288 216 204 220 237 234 204 185 172 153 222 255 247 225 202 131 71 50 38 24 13 13 134 121 116 115 101 84 68 56 53 52 50 53 59 64 65 66 63 60 63 66 64 61 61 58 54 52 52 55 60 66 67 62 57 54 46 43 52 60 59 58 63 72 80 83 84 87 94 111 123 123 134 156 170 181 194 199 206 216 221 225 228 224 220 222
328 295 253 217 229 255 192 129 140 201 217 250 343 316 197 145 97 80 57 34 32 37 63 101 118 116 100 90 87 78 67 64 64 66 71 71 70 68 65 62 64 67 65 61 59 56 51 49 48 49 53 59 63 68 76 77 68 58 52 52 55 56 58 65 70 70 71 66 61 65 74 95 115 126 141 160 180 184 182 200 215 216 222 224 223 226
313 265 255 116 229 293 69 129 163 230 256 79 30 32 98 109 99 91 79 58 53 62 74 89 105 105 95 91 94 94 89 81 73 71 73 75 77 77 73 68 68 70 69 66 63 58 50 44 43 46 48 49 53 61 67 69 68 69 68 63 65 66 66 71 69 61 61 61 57 58 53 48 57 63 72 110 141 160 173 183 198 208 217 223 225 229
201 246 225 120 242 171 175 209 201 137 37 76 77 76 96 113 112 95 75 72 71 61 71 87 94 95 98 100 99 100 99 86 72 65 64 66 70 77 79 76 75 74 73 75 79 80 71 51 41 45 49 51 54 56 54 51 55 67 71 67 68 71 69 70 68 56 52 54 53 54 53 49 50 51 47 50 52 37 32 192 204 220 227 231 232 233
149 130 302 224 297 271 218 190 116 113 141 90 66 52 52 65 107 115 111 117 105 86 85 94 97 100 106 109 109 110 103 86 72 65 66 63 62 68 73 75 77 76 72 72 75 77 81 84 64 56 63 68 69 66 55 50 55 65 62 53 52 64 70 65 60 50 42 40 40 39 43 49 50 54 60 55 42 19 345 338 318 270 251 242 236 234
158 127 218 222 195 238 220 190 182 188 171 33 17 16 18 8 4 71 117 120 117 115 111 106 107 113 116 120 130 133 116 90 79 84 83 76 69 66 65 63 63 65 63 60 58 56 55 52 42 36 41 47 53 67 63 58 67 75 63 49 46 53 67 65 55 45 37 32 31 26 24 30 33 45 64 48 24 17 36 10 344 320 303 283 258 250
248 113 124 242 232 215 206 208 229 210 46 5 1 358 1 0 352 351 120 115 120 128 126 120 119 124 129 137 147 152 135 102 107 133 123 102 84 76 74 70 65 64 64 58 52 49 49 47 40 33 31 27 20 20 22 27 46 54 37 39 37 24 10 22 27 24 23 25 25 21 16 14 11 21 106 63 23 29 65 33 337 318 303 292 290 282
290 89 150 260 276 269 245 230 129 102 53 8 356 356 360 359 344 304 162 122 126 133 132 136 140 139 142 145 140 132 127 113 114 129 134 124 106 94 88 84 82 81 78 72 67 61 56 54 51 42 35 31 26 21 13 3 13 20 1 8 29 13 343 334 348 350 352 4 9 2 352 345 331 304 270 273 307 302 273 249 250 301 289 280 283 280
314 324 288 261 272 295 282 78 112 114 47 348 337 347 353 343 335 221 155 114 112 125 124 124 125 119 116 116 98 79 95 110 113 119 122 117 111 107 100 95 92 88 82 81 85 81 68 58 54 46 38 32 29 28 16 358 354 350 335 336 358 348 331 322 311 306 318 338 345 333 320 316 311 306 303 300 292 280 271 259 246 245 268 274 268 259
329 341 332 311 307 292 225 107 88 94 41 317 313 334 347 338 5 130 131 94 88 101 98 84 84 88 91 95 94 91 98 106 111 118 120 117 113 107 101 95 86 80 75 66 54 50 56 51 34 24 26 18 10 4 349 342 345 336 323 320 313 307 311 310 302 303 311 312 301 290 290 294 299 303 305 304 296 287 280 274 262 250 253 265 262 253
12 342 356 27 350 314 348 87 85 77 26 324 308 333 4 26 109 138 122 96 90 96 92 80 78 87 94 97 99 102 105 108 112 115 115 117 113 100 95 93 82 73 72 64 31 351 23 38 360 342 359 1 352 343 330 329 337 326 310 306 302 297 297 300 303 306 305 298 292 291 291 293 297 300 300 300 299 296 289 281 273 262 252 252 258 259
21 345 9 53 2 324 23 65 78 80 57 44 52 62 51 49 67 103 108 97 96 99 93 85 85 91 97 97 97 101 106 108 110 110 109 113 113 99 92 88 79 62 50 55 24 332 357 17 338 330 347 344 321 312 309 315 319 311 306 306 303 300 299 302 304 301 298 297 296 295 295 297 298 296 293 291 293 292 288 284 281 274 265 258 258 261
38 43 64 62 43 46 76 95 100 92 79 70 70 70 63 55 56 69 79 85 97 99 89 84 86 86 93 104 104 101 107 112 112 112 112 115 112 104 99 86 71 53 40 45 10 329 349 8 347 339 348 335 313 304 303 305 303 298 301 305 305 308 309 306 301 299 298 298 295 290 287 284 280 278 278 279 279 279 278 280 281 278 273 268 263 261
61 66 80 89 87 79 83 98 103 94 83 73 67 69 71 65 63 69 73 77 91 98 92 89 89 77 76 103 112 108 108 114 114 113 118 120 115 110 104 90 72 59 53 52 8 335 346 359 352 345 340 331 324 316 311 310 306 303 304 302 299 303 307 306 301 298 296 295 295 293 290 286 282 279 275 271 271 273 275 276 276 275 273 270 266 263
57 19 73 113 135 114 99 108 111 105 98 90 81 77 78 75 72 75 78 80 87 93 92 93 96 85 73 86 109 114 112 112 114 114 117 117 111 104 95 80 70 62 57 49 15 353 356 356 348 342 336 331 330 329 327 325 325 322 319 314 307 302 300 299 296 293 292 292 293 294 293 292 289 285 281 276 272 271 270 270 272 274 274 271 269 266
14 324 33 100 90 84 113 119 119 117 114 109 103 97 90 84 80 80 85 87 88 90 91 91 95 94 86 85 100 114 116 108 98 93 94 102 102 92 76 64 61 56 45 35 19 5 360 351 340 333 330 327 325 326 325 318 314 314 316 317 313 306 304 301 297 297 297 295 290 288 289 290 286 281 280 280 278 275 273 271 270 271 270 270 273 275
310 312 27 90 93 94 115 125 128 128 122 111 107 107 104 102 100 99 101 100 94 92 98 102 101 99 95 90 95 106 108 97 82 71 75 84 81 68 54 49 48 45 35 25 16 8 1 355 343 332 330 328 326 327 325 314 306 309 312 309 298 284 281 282 282 287 294 296 296 297 297 294 291 289 287 285 282 279 278 276 273 271 268 266 267 269
4 1 29 83 126 126 126 131 131 129 124 116 111 110 108 109 111 112 111 107 99 97 104 112 114 108 97 89 88 90 87 79 68 58 60 67 61 49 42 40 35 28 20 12 5 1 358 356 352 347 346 344 343 346 345 336 330 328 325 322 315 305 297 292 285 284 290 290 285 286 290 289 284 284 285 284 283 283 281 277 273 271 272 272 268 265
36 31 33 43 75 97 114 120 99 97 118 121 116 112 112 112 114 115 112 105 101 117 119 103 92 95 90 86 92 87 72 61 56 48 44 47 42 34 35 36 26 15 12 11 6 4 5 6 10 14 11 4 0 356 347 342 339 335 328 327 326 321 316 311 305 300 301 297 285 279 284 288 283 274 269 269 277 287 289 285 279 274 275 279 281 276